GFSGL_850_rhum_201.txt.gz
RH
92 85 94 90 92 93 97 98 96 99 100 95 98 99 99 99 94 99 96 97 100 100 100 100 100 98 81 85 83 78 72 57 55 57 58 60 54 48 46 36 20 13 9
85 82 85 98 87 84 94 99 97 99 99 91 93 100 99 99 100 100 97 96 100 99 99 100 93 99 93 89 84 75 61 47 50 49 45 47 52 43 37 19 13 10 9
81 84 93 99 88 98 97 99 100 100 99 95 99 100 100 100 97 98 100 100 100 100 99 96 92 87 78 63 48 49 47 53 51 44 32 26 29 28 21 13 10 11 11
99 96 100 96 90 99 100 98 96 96 99 100 100 92 98 95 98 100 99 100 98 100 99 90 72 73 49 42 46 50 52 49 40 16 16 21 16 15 14 13 14 13 15
92 99 100 95 99 98 100 100 100 100 100 100 99 97 100 99 99 98 100 97 97 88 80 74 69 46 44 38 33 27 16 12 10 9 10 12 13 14 14 16 15 18 19
100 100 100 96 99 100 99 100 100 100 100 100 100 99 100 100 98 95 94 91 89 87 82 68 42 19 18 18 17 15 12 12 13 14 15 15 14 14 15 18 20 19 21
99 100 100 100 100 100 100 99 100 100 99 99 100 99 99 97 89 85 90 92 91 89 81 47 16 15 14 14 14 14 16 17 17 17 16 15 15 18 19 19 20 21 26
100 100 100 100 99 100 100 100 100 100 100 100 98 98 96 96 91 93 89 76 66 56 29 19 16 15 14 15 18 20 20 19 18 18 18 19 20 20 20 20 20 21 21
99 99 100 100 100 100 100 100 100 100 100 97 96 87 86 92 74 69 66 61 49 31 22 18 15 16 21 22 22 22 20 21 22 22 22 23 22 21 20 21 21 22 27
98 100 100 100 100 100 100 100 100 100 98 100 99 100 92 48 39 31 27 25 21 18 18 20 23 23 24 24 23 23 24 25 26 26 26 25 24 22 20 22 25 30 35
100 100 100 100 100 100 100 100 100 99 100 98 57 43 46 33 30 24 19 17 17 20 19 20 23 25 25 26 26 26 27 29 30 29 28 27 25 23 23 26 29 32 35
99 100 100 100 99 100 100 100 100 100 100 98 98 81 37 31 28 26 26 25 23 20 20 24 27 28 28 28 28 31 32 33 33 32 31 30 28 27 26 25 27 34 39
100 99 100 99 100 100 100 100 100 100 99 94 52 37 32 32 31 29 28 25 22 23 31 56 50 29 30 33 35 36 36 36 36 35 34 34 32 29 27 25 25 30 39
100 100 100 100 100 100 100 100 98 70 53 69 74 46 29 28 32 46 50 33 41 58 45 29 31 32 32 33 33 35 39 39 38 37 36 38 38 33 29 30 29 34 40
99 100 100 100 99 90 80 65 53 42 27 29 32 50 51 28 48 73 68 69 68 39 30 32 31 29 29 30 33 38 44 47 46 42 39 41 46 41 35 34 33 37 44
99 100 100 99 91 65 47 42 45 52 46 34 36 40 35 36 65 80 77 49 30 30 32 30 26 27 30 33 35 38 45 50 50 45 44 46 51 53 46 39 38 47 63
100 99 96 84 57 41 35 38 55 69 76 88 92 88 86 82 70 43 26 27 30 32 31 29 28 28 30 31 33 38 45 52 55 51 47 47 49 53 58 48 45 47 54
85 84 68 54 42 38 49 58 68 79 88 43 42 32 28 25 23 22 28 30 30 30 30 30 29 29 30 31 32 33 36 45 53 59 57 52 50 53 61 57 52 62 77
82 67 46 44 54 70 83 87 88 70 47 37 26 21 22 25 26 27 28 28 28 28 30 31 32 32 32 31 30 30 29 31 38 43 56 61 59 62 73 73 62 63 85
72 48 46 65 77 81 85 78 63 48 35 27 17 17 21 25 25 25 25 26 26 28 29 30 31 31 30 28 25 27 32 36 41 47 52 62 69 74 79 74 63 69 80
67 67 70 71 81 88 87 70 52 32 21 15 17 19 22 25 25 25 24 24 25 26 26 28 29 29 27 27 27 30 40 47 68 82 60 63 70 72 81 76 71 78 92
82 69 68 71 69 62 52 42 38 29 21 17 18 21 23 25 26 27 26 26 26 26 27 27 25 24 24 28 32 34 44 58 92 64 60 65 69 76 84 75 82 95 100
95 91 86 74 65 50 40 38 34 28 24 22 20 20 20 21 23 23 23 23 23 24 25 25 28 25 25 29 31 38 64 93 62 59 64 69 74 82 74 81 100 100 100
100 100 99 95 62 44 32 32 30 27 26 25 24 22 21 20 20 19 22 26 27 44 71 83 50 28 34 34 41 74 76 59 60 64 70 75 75 63 82 100 100 100 100
100 100 99 57 48 38 32 30 30 30 29 28 27 24 22 25 36 66 94 98 88 64 45 33 34 36 37 44 61 86 82 61 62 66 70 64 72 100 100 100 100 100 98
98 97 65 49 40 35 33 32 31 31 30 29 28 37 61 79 92 95 68 43 37 36 36 40 44 51 70 74 56 57 62 64 65 58 67 82 87 82 90 99 99 98 97

GFSGL_850_rhum_204.txt.gz
RH
89 82 78 77 83 96 89 81 90 91 100 98 96 92 96 98 96 99 100 100 100 100 100 100 100 98 99 94 85 70 62 62 65 63 60 58 58 61 61 56 52 40 18
86 88 88 83 96 96 90 98 91 97 98 98 98 94 93 100 100 100 98 100 100 100 100 100 100 98 98 92 82 70 73 78 72 58 52 54 57 56 51 47 35 16 10
97 100 100 100 99 91 87 92 97 95 92 100 99 97 90 100 98 100 99 100 100 100 100 100 99 100 99 91 94 86 80 70 60 49 50 49 47 44 38 25 13 10 10
99 100 98 100 98 92 96 95 93 100 94 98 97 96 95 100 100 99 100 100 100 100 100 98 100 89 96 87 82 80 58 44 46 51 45 34 31 27 17 13 12 11 12
100 100 100 100 97 99 99 100 98 100 98 100 98 93 100 99 97 99 100 99 100 97 99 100 95 91 90 79 50 46 49 50 50 45 19 18 17 14 13 13 13 14 15
100 100 100 100 98 98 99 100 100 100 97 98 100 100 100 93 100 100 99 99 97 100 94 90 88 77 48 44 44 45 35 22 15 12 13 14 15 15 15 16 15 16 15
100 100 99 100 99 99 99 99 100 100 100 100 100 100 100 100 100 100 100 98 94 94 89 80 52 37 25 18 15 14 14 14 15 16 16 16 14 16 16 19 19 18 17
99 100 100 100 99 99 100 99 100 100 100 100 100 100 100 100 100 99 95 91 90 73 59 53 55 26 16 16 16 16 18 19 18 18 18 18 18 19 20 20 18 17 17
100 99 100 100 99 100 100 99 99 100 100 100 100 100 99 99 99 95 94 97 89 86 70 35 17 14 14 16 19 20 20 20 21 22 23 22 22 20 19 18 18 17 17
99 99 100 99 99 99 100 99 98 99 99 100 100 100 99 97 93 84 78 66 59 32 21 19 18 18 22 23 22 21 23 25 27 28 27 25 24 22 20 20 20 20 22
100 100 100 100 99 100 100 100 100 100 99 100 100 99 98 82 50 42 50 40 27 21 18 20 23 24 24 24 24 26 31 40 39 34 30 28 26 26 24 24 24 23 25
100 100 100 100 100 100 99 100 100 100 99 96 77 58 41 34 28 27 25 21 18 17 20 22 25 27 29 28 36 61 57 37 35 35 33 31 31 32 31 28 26 25 25
100 99 100 100 99 99 100 100 100 100 80 60 53 32 31 31 29 28 26 25 23 21 25 34 40 29 30 52 70 39 36 37 38 36 34 32 34 38 38 33 31 29 26
99 99 99 99 99 100 100 100 100 97 95 76 45 32 30 28 28 28 25 25 26 36 59 60 50 49 58 41 32 34 37 39 43 43 38 34 35 38 43 45 44 38 34
98 99 99 99 99 99 98 96 88 88 71 48 29 25 34 37 39 44 40 63 72 61 41 40 46 46 33 30 29 31 34 38 45 46 42 39 38 39 43 49 50 49 42
99 98 99 97 95 70 52 48 41 40 48 63 69 66 42 63 78 87 96 94 75 49 39 34 35 29 27 27 26 28 33 38 45 50 53 51 49 47 45 47 54 56 52
100 99 98 70 54 49 63 59 50 40 38 53 69 52 42 64 77 82 75 59 34 31 32 32 28 27 28 28 28 29 30 33 39 47 53 59 60 60 58 54 52 58 60
99 95 83 74 52 43 42 46 54 67 77 79 80 73 73 74 72 50 34 26 28 32 32 32 30 29 30 30 30 29 30 31 32 34 37 39 44 47 50 56 56 60 66
94 68 56 41 36 39 53 63 72 81 77 45 52 48 39 27 24 23 24 29 30 31 30 30 31 32 33 32 32 31 31 32 34 35 39 54 72 80 52 54 57 64 80
82 70 58 47 48 63 77 85 82 60 45 32 28 23 20 22 23 24 26 28 28 28 28 29 31 32 32 32 31 31 31 32 34 40 47 68 90 64 58 66 80 98 99
83 66 46 61 76 82 86 80 74 61 39 24 18 18 20 23 26 28 28 27 26 26 27 28 28 29 30 32 32 32 32 34 36 43 48 85 76 69 80 90 100 100 100
68 52 59 70 78 84 86 84 54 41 31 23 18 18 21 22 24 26 27 28 28 29 29 29 29 30 32 32 34 33 36 38 49 47 82 80 71 79 88 100 100 100 100
72 70 70 69 72 71 58 46 41 38 29 23 22 20 20 21 24 27 30 30 28 27 27 29 33 37 54 72 74 47 73 53 46 69 91 84 81 89 98 100 99 100 100
100 91 84 86 77 69 50 39 35 31 27 26 26 26 25 25 26 26 25 26 33 51 78 94 97 94 85 56 40 44 47 59 83 94 80 80 83 85 88 96 100 100 100
100 100 99 100 82 50 37 33 31 30 31 31 32 30 28 25 26 33 71 98 98 93 60 47 41 42 44 47 54 66 76 67 65 69 72 69 65 77 100 100 98 93 92
100 100 99 89 49 37 35 33 33 33 33 32 31 30 38 57 74 90 83 56 43 41 43 49 56 64 69 73 72 66 65 66 66 63 68 78 82 77 86 90 86 88 88

GFSGL_850_rhum_207.txt.gz
RH
84 79 76 82 84 80 82 100 94 89 88 88 95 96 94 92 98 96 91 91 88 96 92 100 99 100 99 92 94 91 75 65 50 53 52 60 64 69 71 72 68 63 55
84 84 95 99 97 98 100 94 88 89 95 94 99 100 97 96 96 91 84 91 95 96 100 100 99 98 100 100 92 98 90 82 58 66 65 62 59 59 67 69 68 58 46
98 96 91 95 99 100 97 90 89 98 96 100 99 97 93 99 94 99 87 93 97 100 100 99 100 99 96 95 94 91 80 70 70 78 67 60 57 60 63 63 56 39 17
100 100 100 100 100 98 96 92 90 94 86 100 87 82 98 99 99 92 98 99 99 100 100 100 100 100 97 98 95 90 86 78 75 66 58 54 58 56 57 53 32 16 15
99 100 100 100 99 98 98 98 98 96 99 96 95 96 100 92 98 97 100 99 100 100 100 100 100 100 100 100 98 94 84 81 78 57 53 55 56 48 40 21 16 16 17
99 100 100 98 100 99 96 98 100 100 99 95 90 89 99 100 96 97 100 98 99 100 89 94 93 98 98 98 94 68 59 54 53 50 49 35 28 17 16 17 16 17 17
99 100 100 100 98 98 99 99 99 100 100 100 100 100 99 100 100 100 100 98 99 100 98 98 96 96 80 52 49 52 49 37 32 20 14 15 16 16 16 17 18 17 16
99 100 99 99 99 95 100 98 99 100 100 100 100 97 100 100 92 99 100 100 100 98 96 95 90 68 33 25 19 16 14 15 17 18 18 17 18 19 18 18 16 16 18
99 100 99 100 99 99 100 98 99 100 99 99 100 100 100 100 99 99 98 95 94 86 65 43 33 36 23 19 17 17 19 19 20 22 22 22 21 20 19 19 20 20 20
100 100 100 99 100 100 100 98 100 100 100 99 100 100 99 100 100 96 97 97 94 84 78 62 34 18 17 20 20 20 20 24 26 28 30 28 26 34 33 23 23 23 21
99 99 99 99 99 100 100 99 100 100 100 100 99 100 100 100 99 95 76 73 66 39 24 20 20 23 24 24 24 26 35 47 50 44 33 43 55 28 29 29 28 28 26
99 99 100 100 100 100 99 99 100 100 100 99 98 88 67 51 51 62 57 42 25 19 19 23 25 25 25 28 53 62 56 39 37 45 48 33 30 31 35 37 37 36 35
99 100 100 100 99 100 100 100 99 100 96 72 47 37 29 27 29 28 26 23 22 21 24 26 30 29 47 74 60 39 43 58 46 40 38 33 34 34 36 37 41 44 44
99 99 100 99 99 100 99 99 94 72 69 60 34 27 28 29 27 26 25 24 25 32 50 33 32 48 66 54 61 57 39 34 40 44 42 40 42 42 41 40 39 41 43
99 99 100 99 100 100 100 96 91 91 66 41 31 27 25 28 29 28 26 28 44 62 53 52 58 62 62 53 38 29 30 34 41 45 47 49 52 53 53 52 50 49 48
96 98 100 100 100 98 86 83 78 66 41 34 34 38 42 67 64 69 87 80 68 61 58 70 70 59 40 30 26 27 29 34 38 40 44 48 48 43 43 50 50 54 54
99 98 99 90 60 52 47 44 50 54 53 63 63 47 71 74 81 88 89 82 67 56 54 39 34 30 27 27 28 29 32 33 31 33 34 34 37 40 56 74 69 54 53
100 98 69 56 59 61 53 45 41 46 65 75 61 50 63 74 77 74 66 52 33 30 32 33 32 30 29 30 32 33 34 35 34 34 32 34 39 53 73 84 76 67 72
98 86 73 52 43 45 55 72 76 75 70 68 73 68 68 58 46 33 24 26 29 31 33 33 32 32 34 36 38 38 38 36 34 32 33 37 45 54 72 93 79 78 89
90 73 46 37 37 52 66 80 88 83 78 35 32 30 25 23 24 25 26 27 29 30 30 31 34 36 37 37 37 36 35 34 34 37 40 43 50 60 78 97 77 80 77
72 70 56 44 50 70 85 84 67 61 50 30 22 18 19 20 24 27 29 30 32 32 33 33 33 32 32 32 33 34 36 35 40 40 41 58 88 77 97 95 85 100 100
74 68 48 51 75 86 91 88 84 49 37 26 19 18 21 24 27 31 35 38 39 37 35 31 28 28 29 32 37 42 55 65 81 54 80 70 65 77 96 88 100 100 100
79 54 50 64 78 82 83 75 54 43 36 28 25 25 24 25 27 32 35 34 32 30 28 28 35 54 85 97 96 96 88 66 54 53 58 76 95 89 84 100 100 100 100
74 59 67 70 71 75 72 52 45 40 33 29 28 28 27 26 27 28 28 28 34 62 94 98 95 57 46 44 46 50 55 61 68 79 83 76 80 81 82 85 93 97 95
93 95 81 81 97 97 49 39 38 34 32 32 32 32 32 30 29 37 53 82 89 60 46 46 48 53 59 64 68 73 76 76 74 72 69 66 67 73 82 87 87 90 91
100 100 99 100 98 60 41 35 35 35 34 34 33 34 47 67 82 81 61 52 55 56 56 53 52 54 55 57 58 59 59 60 62 68 75 79 79 77 88 92 90 92 92

GFSGL_850_rhum_213.txt.gz
RH
74 74 86 85 97 98 99 98 97 96 99 92 88 93 92 83 82 88 98 97 96 100 99 99 95 89 85 82 89 89 100 100 100 96 92 99 100 100 98 100 98 90 83
78 88 100 97 100 100 100 100 94 88 82 83 78 79 94 100 98 99 96 98 99 99 99 99 99 95 96 88 93 93 92 100 100 100 99 96 100 100 98 94 88 86 82
93 100 99 100 99 94 97 96 89 88 84 84 83 90 93 91 99 99 98 99 100 100 100 99 97 94 97 98 97 94 99 100 100 100 92 84 87 90 88 86 80 82 81
92 94 99 99 95 96 92 82 90 88 99 100 96 94 87 95 95 99 99 99 98 100 100 100 100 89 92 99 97 99 98 100 100 100 99 94 96 90 90 81 78 74 74
89 91 99 100 96 94 90 96 99 98 98 99 100 99 89 92 94 96 97 100 100 100 100 100 99 100 96 98 94 100 100 100 100 100 100 96 98 95 79 75 75 72 67
85 99 100 100 98 97 92 99 92 98 98 99 100 98 98 100 99 100 98 100 100 99 99 99 93 97 98 100 99 100 100 99 99 98 100 98 98 98 74 74 68 56 21
85 97 100 99 99 99 100 98 88 98 98 100 98 95 98 99 100 100 97 100 96 100 94 91 96 100 99 100 100 97 99 100 100 98 90 89 83 66 63 49 23 17 17
81 94 100 99 99 99 100 96 99 99 99 98 100 100 100 100 100 96 94 95 99 100 98 99 100 100 100 100 99 100 99 94 87 63 56 57 41 22 18 18 18 18 18
81 97 99 98 100 100 100 100 100 98 99 99 100 100 100 100 100 100 94 100 100 100 100 100 100 100 97 92 72 64 56 51 34 23 18 17 17 18 19 32 36 33 22
89 99 99 99 99 100 99 100 100 99 98 100 100 100 100 100 99 100 100 100 99 97 99 85 49 32 28 28 30 27 17 17 18 20 21 23 40 55 43 27 26 28 30
90 100 100 100 99 100 99 100 100 99 100 99 100 100 100 100 99 99 99 98 92 85 85 63 36 23 20 21 20 19 21 26 35 40 45 61 46 30 31 34 35 36 37
96 100 100 100 99 100 99 100 100 99 100 100 99 99 99 98 89 79 67 64 63 63 45 24 21 22 22 23 28 43 53 45 52 59 44 39 38 35 37 38 39 41 42
99 100 100 100 99 100 100 99 100 96 82 71 70 72 63 58 56 56 47 34 24 18 20 22 23 25 33 46 50 41 53 66 56 42 39 38 36 39 41 45 47 50 54
94 100 100 99 98 100 99 97 86 58 38 32 34 38 36 34 33 29 25 23 23 25 25 25 35 57 64 53 48 69 62 47 40 41 40 39 41 45 49 51 51 51 59
94 95 93 92 98 99 81 81 76 51 37 35 30 28 27 26 25 27 27 27 27 28 28 55 68 59 52 63 60 53 43 38 39 43 45 47 48 51 52 48 42 43 63
97 85 99 98 92 93 91 68 52 38 32 30 28 28 28 27 27 31 47 46 32 32 38 56 63 59 60 64 55 39 34 36 38 40 42 44 44 41 38 36 37 40 55
100 96 100 99 90 68 58 43 32 35 32 44 55 69 69 64 63 62 56 49 45 42 50 79 94 90 70 43 34 33 34 35 37 38 40 40 40 39 39 38 41 45 49
100 99 90 83 77 76 76 66 62 54 44 62 76 78 93 92 93 91 90 84 64 64 66 68 49 38 36 34 34 35 36 38 39 40 41 43 44 45 43 42 46 52 56
100 95 59 55 46 41 41 41 54 66 54 44 50 66 74 78 73 66 53 42 38 37 38 40 41 41 41 40 40 40 41 42 45 48 46 46 48 50 46 48 55 64 74
96 94 67 61 55 49 50 74 78 63 52 74 73 71 66 47 33 30 30 31 33 35 37 38 38 38 37 36 37 37 35 36 39 45 51 49 51 54 54 62 78 95 95
100 74 53 48 48 74 77 81 84 67 49 37 33 34 31 27 26 29 35 37 38 38 38 39 41 42 42 41 39 39 41 47 60 95 84 64 83 96 95 86 90 90 97
93 63 55 46 63 70 87 79 71 76 54 40 29 24 23 26 27 31 35 40 42 42 40 37 36 43 68 86 93 95 94 86 70 61 60 61 65 73 84 97 99 99 100
81 65 45 40 50 75 92 91 92 84 52 41 32 27 27 28 30 35 39 40 39 37 43 64 83 76 59 55 56 58 61 65 68 71 76 81 84 85 85 87 83 78 84
75 60 52 48 60 86 92 92 72 58 48 39 31 30 32 34 35 36 36 41 67 82 74 58 54 52 46 46 46 49 52 54 56 59 62 66 70 74 78 77 81 83 87
84 72 61 53 70 80 75 84 94 48 40 35 34 36 37 37 42 63 79 72 53 50 45 44 48 52 55 56 58 60 62 64 66 68 70 72 76 83 90 89 91 92 92
96 76 56 60 75 76 89 97 82 41 38 39 40 41 56 70 66 52 47 44 49 54 56 56 55 54 56 59 63 68 71 74 77 84 96 96 91 92 95 94 93 94 93

GFSGL_850_rhum_216.txt.gz
RH
75 77 80 89 80 85 99 96 99 96 87 78 74 77 80 80 86 93 85 86 91 93 97 98 98 99 100 94 87 88 94 87 86 100 84 94 99 100 98 100 100 100 100
82 86 100 98 99 100 96 96 95 82 69 70 78 84 74 83 98 97 95 90 95 95 89 91 94 99 99 100 94 87 90 92 90 81 99 98 100 100 100 100 100 99 97
86 88 93 95 97 96 95 90 82 86 77 86 99 87 76 89 100 99 99 99 95 96 95 93 94 100 100 100 93 92 98 99 100 91 98 100 100 99 99 100 97 96 90
88 87 86 93 99 99 98 86 93 90 87 94 99 100 100 99 96 96 100 100 100 98 97 94 98 99 100 99 98 93 100 100 100 99 100 100 100 100 100 99 94 91 88
86 84 90 99 99 100 96 86 88 85 87 95 93 96 91 88 98 99 100 100 100 99 97 100 99 99 99 98 98 98 100 100 100 100 100 99 96 96 96 98 99 99 80
85 83 88 99 99 100 93 83 84 96 99 100 98 86 87 92 97 99 100 97 100 100 100 100 99 89 100 100 100 99 100 100 100 98 98 100 100 100 100 100 98 80 73
80 80 85 98 99 99 99 94 97 99 100 100 98 98 97 98 100 100 100 99 100 100 100 92 95 98 95 100 100 100 100 100 100 99 99 99 98 94 98 87 74 64 48
81 81 87 98 100 100 100 98 99 100 100 99 100 99 100 99 99 100 100 100 95 99 93 94 99 98 97 99 100 100 99 100 100 100 100 92 91 80 74 64 40 24 20
84 85 97 99 100 100 99 98 100 100 100 100 100 99 99 100 100 99 100 100 100 99 99 100 100 100 100 100 100 99 100 99 94 78 60 58 41 32 22 19 21 27 27
83 88 98 100 100 100 99 98 99 99 100 100 100 99 98 99 99 100 100 100 99 97 98 96 84 88 64 53 59 61 64 49 36 25 18 18 18 22 40 46 33 27 32
83 85 98 100 100 100 99 99 98 99 100 100 99 100 100 99 99 100 100 100 97 94 80 50 25 20 20 22 21 20 18 20 21 24 33 56 57 42 30 33 34 36 38
84 89 99 100 100 100 99 99 98 98 99 100 99 96 99 93 75 62 60 61 55 51 38 24 22 22 22 22 24 32 45 46 48 57 52 43 38 37 36 38 39 41 44
87 94 100 99 100 100 100 99 92 63 54 59 68 67 65 73 53 50 45 37 28 20 21 22 23 25 37 51 50 43 47 54 54 44 39 40 37 38 39 42 44 46 48
91 91 100 100 100 100 98 91 58 38 31 34 39 36 36 32 27 24 21 21 22 23 24 27 36 53 56 44 51 68 67 55 42 40 41 39 40 42 46 48 48 46 44
93 95 98 98 100 97 86 84 49 38 34 30 27 26 26 25 27 29 29 28 27 26 34 59 63 52 51 63 63 57 48 40 39 40 42 44 47 49 50 50 48 46 43
99 96 99 99 99 97 80 63 43 34 33 32 30 28 26 27 33 38 32 32 32 41 60 64 63 56 60 67 63 50 36 34 36 38 42 46 46 44 42 41 42 42 40
100 99 99 99 91 90 72 47 34 32 34 44 47 35 36 44 51 50 50 47 43 47 54 73 90 90 84 67 40 34 35 36 37 38 40 42 44 45 46 46 48 49 48
100 99 98 97 78 61 47 38 40 44 64 74 78 92 93 90 85 86 86 80 66 68 70 68 66 48 38 38 37 36 38 39 39 41 44 47 52 54 52 53 55 56 57
100 99 92 81 75 72 68 58 56 51 51 63 70 77 81 80 75 65 56 46 41 39 39 40 40 41 42 42 42 42 42 43 44 43 44 50 66 76 71 66 64 67 80
100 99 66 60 45 42 42 61 79 75 76 73 68 70 71 64 40 31 33 35 36 38 40 41 41 42 43 44 44 44 44 47 49 53 57 65 92 96 91 83 92 97 97
100 97 65 52 54 47 65 79 80 72 43 38 42 41 36 32 28 29 36 40 42 44 47 49 48 42 44 68 90 92 89 88 88 85 77 68 65 70 72 77 86 97 99
100 96 68 60 51 74 79 86 70 68 59 48 33 27 26 28 32 37 42 46 49 50 46 44 57 75 78 67 55 55 56 56 57 59 61 63 67 73 80 89 91 91 87
100 88 55 48 66 75 87 79 75 88 67 45 37 32 31 33 36 38 43 45 44 48 71 79 65 53 49 46 44 46 49 52 56 59 61 64 67 71 77 78 82 84 90
99 74 60 46 56 66 88 94 94 71 54 45 38 35 36 37 39 40 42 63 80 68 49 47 46 49 53 55 57 58 60 61 61 63 67 71 75 82 85 90 94 93 94
92 73 48 43 53 80 89 85 81 91 50 41 38 39 40 41 48 71 74 52 47 48 52 54 55 54 55 59 63 68 67 72 77 80 88 87 88 96 97 96 98 97 97
89 67 63 54 59 82 79 88 99 82 43 40 42 43 56 70 58 46 47 53 56 56 53 53 56 62 67 68 70 74 76 80 91 95 97 98 97 97 99 94 89 94 94

GFSGL_850_rhum_219.txt.gz
RH
78 78 75 86 97 99 99 99 90 79 76 74 69 70 74 82 73 78 83 90 92 94 95 98 92 92 97 98 99 100 100 100 99 98 94 89 89 85 91 100 100 100 100
82 80 85 92 97 98 98 93 82 71 77 69 70 72 92 72 74 83 98 99 91 89 87 87 90 89 90 94 96 98 100 94 100 99 99 96 84 86 99 100 100 100 100
83 82 84 86 94 98 94 84 69 69 73 78 87 99 100 100 98 100 99 99 98 100 91 92 95 92 91 92 97 98 100 100 97 92 100 95 94 96 99 100 99 100 100
83 85 83 88 98 99 90 81 64 69 79 88 90 96 99 92 93 92 95 90 99 96 97 97 97 96 94 93 100 100 100 100 100 100 100 99 99 99 100 100 100 100 100
76 84 82 85 98 98 93 78 65 82 86 97 99 100 93 97 99 97 93 100 100 99 98 99 93 91 95 98 99 97 99 100 88 90 99 100 99 99 98 99 100 100 100
75 80 79 84 99 100 96 84 78 88 91 100 99 99 100 97 89 98 99 98 95 100 99 100 100 100 100 100 100 100 100 99 98 100 100 100 100 99 100 100 100 100 100
80 83 79 88 100 99 98 89 88 95 97 100 99 100 100 97 93 99 100 100 98 100 100 97 99 100 98 96 100 100 100 100 99 100 100 99 100 100 100 100 100 100 100
84 81 88 99 100 100 100 96 94 98 99 99 100 100 99 98 99 98 100 100 96 97 92 96 98 98 98 100 100 100 100 100 100 100 100 100 100 100 100 100 96 85 67
86 84 94 100 100 100 97 98 98 98 99 98 100 100 99 99 99 99 100 99 99 92 90 97 99 98 98 98 99 99 100 100 100 100 100 99 95 89 85 64 44 25 22
88 86 93 100 99 100 98 98 100 99 99 99 100 100 99 100 99 99 100 99 95 93 96 94 90 72 65 89 94 99 98 80 71 66 63 45 32 23 20 25 30 31 30
92 90 99 100 99 99 99 99 100 100 100 99 99 100 100 100 100 99 97 91 86 88 80 39 24 24 24 27 34 37 24 23 20 19 20 26 35 44 42 34 33 33 37
99 95 100 100 100 99 99 99 100 98 98 90 97 100 94 89 64 61 60 57 60 50 26 23 22 21 22 22 25 28 29 28 38 54 53 44 37 34 36 36 37 38 40
100 98 100 100 97 98 98 99 75 51 57 56 63 68 60 52 50 46 38 29 23 21 22 23 25 36 46 48 45 48 54 55 50 41 41 43 40 38 38 39 41 42 44
100 99 100 99 96 100 99 86 52 35 34 39 39 40 35 28 25 23 22 23 24 24 29 44 54 52 44 53 67 66 58 48 42 41 41 39 39 40 43 46 47 47 46
100 100 100 96 96 99 97 84 46 38 30 29 29 29 30 28 30 30 28 27 27 42 62 62 51 51 63 62 58 52 45 39 36 36 39 42 44 46 47 46 47 47 46
100 100 99 99 96 96 88 74 42 36 33 30 29 29 29 31 32 32 32 30 48 62 65 64 60 60 66 74 66 54 38 33 33 35 37 41 45 46 45 46 47 48 48
99 100 99 99 97 97 74 49 37 34 33 32 33 36 51 56 54 52 41 39 44 50 58 68 82 88 78 48 37 35 35 35 37 38 40 42 43 45 47 50 55 58 57
97 100 99 99 86 75 50 40 39 58 74 79 84 83 80 80 81 83 82 75 68 67 63 57 50 42 41 42 42 42 43 44 45 47 49 52 56 54 55 82 92 81 83
98 99 99 98 74 60 45 46 47 56 71 74 79 82 80 79 71 58 47 43 36 36 38 41 41 41 41 41 42 42 43 45 46 49 52 56 60 66 76 94 97 97 97
99 100 99 90 77 73 61 56 60 55 52 50 62 67 72 69 45 32 32 34 38 40 43 44 46 46 41 48 71 84 87 83 74 73 74 76 77 78 78 80 89 94 99
100 99 99 83 53 45 45 76 66 53 46 64 65 56 44 40 35 33 35 40 44 47 49 47 44 52 73 77 66 54 52 50 49 48 49 51 54 59 65 76 94 97 96
100 99 94 56 51 46 70 80 81 65 61 52 41 32 29 30 32 36 42 49 51 47 47 65 76 67 48 44 45 46 48 51 52 54 56 58 62 67 71 76 78 80 84
99 99 85 61 57 67 78 85 68 81 78 52 41 36 32 34 39 45 48 45 54 76 74 53 46 47 49 52 52 52 51 52 54 59 64 70 75 79 87 92 94 93 93
99 99 86 60 57 79 87 82 77 91 68 55 43 37 38 41 45 45 60 77 64 47 46 51 54 54 52 52 55 58 62 64 74 80 82 87 91 94 95 98 98 96 95
99 98 61 50 71 70 84 96 95 89 96 56 41 42 43 45 62 73 55 46 49 54 55 52 50 54 58 62 67 71 71 77 88 93 96 88 92 99 100 99 94 92 89
99 88 64 49 53 70 92 93 95 98 64 45 45 46 60 68 50 45 52 55 53 49 50 54 59 63 68 71 72 72 76 87 91 93 96 95 95 91 92 92 95 98 96

GFSGL_850_rhum_222.txt.gz
RH
57 64 72 82 88 98 99 92 88 80 72 68 73 67 70 74 74 73 74 74 80 88 96 97 94 96 91 83 87 96 99 98 99 100 98 85 81 82 86 85 82 87 99
70 70 77 81 86 92 99 91 79 75 67 68 71 71 81 93 98 88 83 94 98 98 99 99 93 93 96 90 89 84 88 91 100 100 99 97 94 89 88 93 93 98 100
74 75 80 80 86 96 100 91 78 65 65 73 80 82 83 87 90 93 98 95 97 99 100 100 96 94 93 88 89 86 90 91 96 100 100 100 100 99 98 100 100 98 100
75 76 78 80 85 98 99 90 78 64 73 75 83 96 94 91 89 94 99 100 100 98 100 98 99 97 100 99 99 96 95 97 100 100 100 100 96 99 100 100 100 100 100
79 76 78 80 85 97 100 91 76 75 84 82 92 92 95 91 93 94 100 99 99 100 100 98 99 95 99 99 100 93 93 97 100 89 97 100 97 100 98 99 100 100 100
80 80 81 79 87 98 98 92 79 80 90 94 93 99 99 100 100 100 100 94 93 93 99 99 100 98 98 100 100 100 99 100 93 100 100 99 96 98 100 100 100 100 100
86 83 80 85 97 98 99 97 89 93 99 99 99 100 99 99 100 92 98 100 99 99 98 99 99 100 100 99 97 94 100 100 100 100 100 100 100 100 100 100 100 100 100
88 83 84 97 99 100 100 99 95 99 100 99 99 99 99 100 100 100 100 99 98 97 93 92 97 91 97 99 100 99 100 100 100 100 100 100 99 100 100 100 100 100 99
91 86 86 98 100 100 100 100 97 100 100 99 99 99 99 100 99 100 100 100 95 91 94 98 97 92 98 100 100 99 100 99 99 100 100 99 99 100 100 100 97 96 69
99 92 89 97 99 100 100 100 99 100 99 99 100 99 100 100 99 100 100 98 93 93 89 83 64 63 93 99 99 100 98 96 96 92 87 82 86 95 85 66 59 34 26
95 99 96 99 99 100 99 99 100 98 98 100 100 99 99 99 99 92 83 82 82 79 44 24 24 30 34 47 60 58 43 44 35 27 28 28 27 26 29 30 31 29 34
79 98 99 99 100 100 99 98 99 83 84 82 98 90 93 93 68 64 64 60 38 25 22 20 22 22 23 24 26 26 28 37 48 52 48 42 37 34 34 34 35 37 39
68 98 99 99 99 100 100 99 74 51 58 60 68 65 53 51 47 37 28 25 23 22 24 31 43 47 46 51 56 56 54 47 41 41 42 42 40 39 39 39 40 42 43
48 93 99 99 99 99 100 98 67 39 40 43 44 39 27 25 24 24 24 25 25 37 52 51 44 50 65 67 59 51 45 42 42 42 40 38 38 39 41 42 45 46 45
31 84 100 99 99 99 99 98 59 39 32 32 33 31 28 27 28 27 26 30 47 62 58 49 55 63 62 62 58 49 41 36 34 34 36 37 40 42 43 44 43 42 42
26 66 100 99 99 99 98 95 50 38 32 32 31 31 31 30 30 30 30 53 64 64 62 62 65 72 76 69 51 38 35 34 34 34 36 37 39 41 42 43 44 47 49
27 54 99 99 99 99 98 60 40 37 34 35 38 55 56 51 38 35 37 42 46 53 63 73 82 74 57 41 40 40 41 41 42 44 45 47 48 50 54 59 62 70 87
31 46 100 99 99 99 84 45 37 40 43 46 56 62 67 67 70 76 74 72 67 64 58 49 42 41 42 42 40 39 40 41 42 44 46 49 53 58 65 73 84 93 98
33 41 98 99 99 96 54 40 51 71 78 90 93 92 91 86 76 59 47 43 36 35 37 39 40 41 42 41 47 70 81 83 82 81 81 81 81 81 82 82 83 87 92
34 40 99 99 97 68 43 46 48 58 71 73 78 76 75 72 57 36 33 34 37 40 43 45 46 45 48 69 75 66 54 51 50 49 49 50 51 55 60 64 84 99 100
35 47 100 99 96 80 68 59 63 62 62 65 70 73 68 49 40 34 38 42 44 47 45 44 56 72 69 51 44 45 47 49 50 52 53 54 56 59 63 72 78 83 82
43 72 100 99 97 90 58 76 68 56 46 48 46 41 37 35 36 40 44 47 46 47 65 74 58 45 46 49 51 51 50 49 51 55 58 63 68 76 83 90 92 92 92
53 90 99 99 89 68 53 89 80 66 71 55 46 41 38 41 44 46 46 48 68 72 50 46 49 53 53 50 49 52 55 58 67 75 79 85 90 93 94 95 98 97 95
53 97 99 97 77 68 74 86 72 82 82 58 51 45 42 43 44 46 68 68 47 47 52 54 51 49 50 54 58 62 65 69 79 86 89 94 89 88 90 93 97 96 96
57 99 99 94 67 70 88 84 79 89 78 97 58 43 44 46 64 66 46 48 54 52 48 48 51 55 59 64 66 68 71 78 95 98 97 97 90 95 92 91 89 95 95
92 99 98 90 60 94 90 95 93 94 98 57 44 46 56 66 47 48 53 50 45 46 48 53 57 62 66 70 74 81 81 92 96 95 95 90 94 97 91 89 92 97 99